Location: Newark
(53.3333°N, 12.7167°E)
Time: 17:09:05
(UTC+00:00)

Envisat - Visible Passes

Search period start: 16 October 2019 00:00
Search period end: 26 October 2019 00:00
Orbit: 764 x 766 km, 98.1° (Epoch: 16 October)

Date Brightness Start Highest point End Pass type
(mag) Time Alt. Az. Time Alt. Az. Time Alt. Az.
16 Oct 3.0 16:42:06 10° SSE 16:47:08 69° ENE 16:52:13 10° N visible
16 Oct 5.6 18:22:48 10° SW 18:26:41 22° W 18:30:35 10° NW visible
17 Oct 6.2 04:45:48 10° NE 04:48:46 15° E 04:51:45 10° ESE visible
17 Oct 4.4 17:44:47 10° SSW 17:49:34 40° W 17:54:22 10° NNW visible
18 Oct 3.2 17:07:33 10° S 17:12:38 78° WSW 17:17:45 10° NNW visible
18 Oct 6.1 18:50:00 10° WSW 18:52:33 14° W 18:55:06 10° NW visible
19 Oct 5.2 18:11:03 10° SSW 18:15:17 26° W 18:19:33 10° NW visible
20 Oct 6.4 04:35:10 10° ENE 04:37:20 13° E 04:39:30 10° ESE visible
20 Oct 4.0 17:33:19 10° S 17:38:13 49° W 17:43:11 10° NNW visible
21 Oct 3.0 16:56:17 10° SSE 17:01:22 88° ENE 17:06:30 10° NNW visible
21 Oct 5.9 18:37:54 10° SW 18:41:07 17° W 18:44:21 10° NW visible
22 Oct 6.0 04:59:30 10° NE 05:03:13 20° E 05:06:56 10° SE visible
22 Oct 4.9 17:59:25 10° SSW 18:03:55 31° W 18:08:27 10° NNW visible
23 Oct 6.7 04:25:38 10° ENE 04:25:52 10° E 04:26:07 10° E visible
23 Oct 3.6 17:21:54 10° S 17:26:55 60° W 17:31:58 10° NNW visible
23 Oct 6.3 19:06:34 10° W 19:07:03 10° W 19:07:32 10° WNW visible
24 Oct 3.0 16:45:03 10° SSE 16:50:06 74° ENE 16:55:12 10° NNW visible
24 Oct 5.6 18:25:59 10° SW 18:29:41 20° W 18:33:26 10° NW visible
25 Oct 6.1 04:48:35 10° NE 04:51:49 17° E 04:55:01 10° SE visible
25 Oct 4.5 17:47:51 10° SSW 17:52:33 38° W 17:57:18 10° NNW visible
